Location: David Mid Texas Observatory
(30.9664°N, 96.2113°W)
Time: 08:49:42
(UTC-06:00)

OTV 5 (USA 277) - Visible Passes

Search period start: 23 November 2017 00:00
Search period end: 03 December 2017 00:00
Orbit: 404 x 417 km, 43.0° (Epoch: 07 September)

Date Brightness Start Highest point End Pass type
(mag) Time Alt. Az. Time Alt. Az. Time Alt. Az.
23 Nov ? 04:40:29 15° ESE 04:40:29 15° ESE 04:41:13 10° ESE visible
23 Nov ? 06:13:16 11° WSW 06:15:02 16° SW 06:17:05 10° S visible
24 Nov ? 05:24:59 23° SSW 05:24:59 23° SSW 05:26:55 10° SSE visible
27 Nov ? 19:25:16 10° SSW 19:25:47 13° SSW 19:25:47 13° SSW visible
28 Nov ? 18:34:56 10° S 18:37:19 18° SE 18:37:30 18° SE visible
29 Nov ? 17:45:46 10° SSE 17:46:24 10° SE 17:47:02 10° SE visible
29 Nov ? 19:19:58 10° WSW 19:21:56 32° WSW 19:21:56 32° WSW visible
30 Nov ? 18:28:59 10° SW 18:32:17 56° SE 18:33:31 33° E visible
01 Dec ? 19:15:33 10° W 19:17:49 27° NW 19:17:49 27° NW visible
02 Dec ? 18:24:11 10° WSW 18:27:27 47° NNW 18:29:16 22° NE visible
